Wind_Speed
18 21 21 22 20 21 23 31 32 42 34 33 33 34 38 40 37 38 40 38 41 39 40 38 35 35 33 27 24 21 17 16 16 13 14 17 18 23 25 23 21 20 20
20 19 24 25 26 24 23 25 31 37 38 37 40 34 35 32 35 30 37 39 41 37 35 32 28 28 29 30 31 24 17 16 14 10 7 4 7 14 13 14 22 23 20
19 21 21 24 26 27 29 26 28 31 37 39 31 28 23 24 24 34 33 34 32 35 35 29 26 29 30 31 32 30 21 17 12 19 8 2 4 5 9 11 19 23 22
22 21 22 27 30 29 29 31 27 26 31 34 33 35 33 29 32 26 25 24 31 38 37 33 31 34 37 37 33 25 21 15 15 12 24 24 15 5 10 12 13 14 18
21 23 24 32 27 27 28 31 24 21 24 28 37 33 33 30 21 18 21 23 30 39 40 42 36 36 34 30 24 16 16 18 17 16 7 18 17 18 7 7 15 19 19
23 24 33 36 35 33 32 30 25 19 15 24 31 32 28 22 15 16 18 22 24 30 36 29 28 28 28 22 16 15 12 13 14 15 14 13 7 8 8 6 9 12 22
22 23 25 28 35 34 33 31 27 20 9 10 18 22 20 17 17 18 19 17 18 19 26 27 27 24 21 16 15 12 10 6 6 4 4 4 5 6 6 6 7 8 9
21 23 23 29 31 33 31 31 25 16 8 5 5 6 9 10 10 12 9 12 20 21 17 26 27 22 18 16 14 11 7 6 4 3 2 3 4 6 6 5 6 5 7
20 23 27 31 33 31 25 25 24 15 17 20 21 19 15 16 20 21 23 28 28 26 26 15 28 21 20 15 17 15 11 11 9 9 8 6 6 6 6 6 6 6 4
21 20 20 30 32 32 25 24 21 18 14 23 27 31 29 29 29 28 29 27 23 24 20 15 17 20 21 20 16 14 15 14 13 11 10 11 9 8 8 8 8 6 5
18 19 20 28 30 31 24 20 18 15 15 16 24 30 29 29 30 32 28 21 22 31 28 21 16 20 21 20 16 17 17 15 14 13 11 9 9 9 9 9 9 8 8
17 19 23 26 27 30 21 13 8 16 14 13 22 29 26 30 32 28 23 24 24 30 28 24 21 21 21 19 17 18 16 15 15 12 9 10 9 10 11 10 11 10 7
17 18 20 23 27 29 23 8 8 6 15 10 21 31 26 28 26 27 25 26 24 21 23 23 23 20 20 19 18 17 17 16 13 10 8 10 12 13 13 12 12 12 11
17 18 19 20 26 28 23 9 3 3 6 19 22 23 27 24 31 25 22 23 22 22 27 25 22 22 20 19 15 13 13 12 11 7 9 10 13 14 14 12 13 13 14
16 18 19 19 28 28 26 8 5 3 3 10 16 21 30 28 25 28 20 20 21 25 26 23 21 22 21 17 14 14 13 10 7 8 10 10 10 10 12 12 14 13 13
16 18 20 23 28 31 28 10 7 9 12 14 19 16 24 28 23 25 22 20 22 21 23 21 21 22 24 19 16 14 11 11 11 10 11 11 12 14 12 13 14 14 14
15 16 19 23 29 34 27 9 9 13 18 19 25 23 23 24 19 23 23 21 21 23 20 20 21 24 26 24 18 20 12 12 11 12 13 13 14 15 17 18 17 15 15
14 15 19 25 27 24 15 6 9 13 17 19 19 22 25 19 20 23 24 20 20 21 22 22 19 21 26 27 27 15 12 13 13 12 15 15 16 16 21 22 21 19 17
14 15 18 20 21 14 12 14 17 16 19 21 21 21 24 23 22 25 21 18 19 22 24 20 20 22 26 26 24 17 16 16 15 15 15 18 18 21 22 24 23 23 22
15 16 17 16 15 9 12 22 21 23 22 22 24 27 28 25 28 25 18 17 18 19 22 22 23 23 20 25 27 25 18 17 18 17 17 17 20 29 30 26 24 25 26
14 13 11 11 10 5 13 20 25 24 23 28 29 27 29 26 23 21 20 17 16 19 21 22 20 20 21 21 26 26 21 21 20 19 20 22 26 27 25 24 22 25 28
10 7 7 5 6 8 13 18 24 28 30 31 30 30 29 26 23 21 17 16 16 20 21 18 18 19 20 23 25 25 23 21 18 18 21 22 24 24 25 22 26 26 26
4 3 3 6 9 10 14 21 21 25 28 32 30 30 28 24 19 17 16 18 20 20 18 18 19 18 20 22 24 23 23 21 19 19 19 19 20 21 21 25 25 24 21
2 3 8 10 15 18 22 23 25 27 29 27 26 27 23 20 19 21 20 22 22 20 19 18 17 17 20 23 25 24 22 21 20 22 20 20 18 19 20 22 23 25 23
8 10 12 15 18 22 25 23 24 27 26 25 22 21 20 20 22 24 22 25 25 21 19 18 17 18 20 22 22 23 22 22 22 18 19 21 23 24 25 25 25 25 25
11 16 17 20 20 24 26 24 24 25 24 20 17 17 17 16 15 15 21 21 19 20 21 20 20 16 18 20 23 24 23 22 22 19 21 22 23 24 25 26 29 27 27
Wind_Direction
342 342 344 342 332 307 267 245 239 236 223 216 212 213 220 224 228 228 228 229 233 237 241 239 246 249 249 246 245 242 238 243 245 260 271 274 271 273 276 272 271 273 271
352 355 350 344 333 322 311 286 252 239 225 220 218 219 225 227 228 227 225 224 226 235 231 238 242 256 255 253 246 234 227 236 228 232 261 285 280 273 265 277 288 286 283
348 346 344 338 335 330 325 305 285 254 230 221 218 219 228 228 223 222 222 219 209 221 226 223 229 250 252 250 248 238 225 227 227 235 213 215 257 313 276 271 277 285 284
351 346 341 337 332 326 322 326 310 278 238 218 213 209 214 219 225 223 219 214 201 216 220 210 215 239 243 241 238 232 229 226 230 216 223 232 250 263 304 288 298 284 287
0 355 349 342 337 333 332 330 323 301 262 226 214 213 218 224 227 214 200 202 203 217 210 212 230 229 233 226 226 231 238 242 237 219 206 230 241 246 246 280 290 295 296
355 359 357 355 353 346 342 336 327 312 296 242 216 217 218 218 200 193 198 199 205 203 206 212 222 228 217 231 235 233 241 247 251 257 253 249 233 259 238 261 266 281 293
358 359 358 355 348 348 343 341 335 317 316 251 217 216 214 207 209 205 200 203 198 189 191 195 191 185 183 174 158 144 148 130 121 99 87 65 64 357 324 291 292 281 294
4 360 355 352 350 345 349 345 344 346 4 108 138 176 193 201 202 207 180 117 86 79 93 143 137 134 135 132 132 126 114 107 96 57 39 26 3 353 360 332 333 292 280
358 356 352 352 353 349 347 350 353 12 58 72 80 77 93 112 103 99 105 103 105 98 75 10 93 95 101 103 95 86 80 72 55 39 33 43 20 11 356 342 340 321 298
354 349 351 346 346 348 346 357 10 15 48 92 91 86 78 82 87 92 91 91 103 105 99 59 64 80 77 69 71 74 66 64 53 43 37 37 22 21 19 2 347 341 327
345 343 344 343 342 345 344 2 14 30 45 67 95 105 100 97 90 87 85 79 89 96 96 104 73 65 67 70 68 66 64 61 57 49 40 34 32 27 22 17 6 7 354
341 339 341 338 344 344 339 349 32 46 40 70 90 86 89 97 98 88 82 90 77 88 91 89 79 71 66 62 67 68 63 61 55 42 36 33 32 33 24 16 3 2 359
340 341 342 343 340 343 336 346 340 82 112 57 98 106 103 95 91 97 100 89 87 85 91 88 80 77 77 72 63 66 68 63 62 50 37 32 32 26 18 10 355 347 341
340 339 341 340 337 335 332 302 327 2 116 129 107 100 102 101 108 99 94 92 97 90 81 77 78 76 70 69 69 65 62 58 54 42 43 34 36 24 16 1 344 342 332
339 337 338 335 336 333 330 270 211 237 81 95 103 105 110 101 97 102 90 85 83 82 76 71 65 65 60 58 65 64 56 46 41 23 27 22 18 17 5 358 343 338 330
336 336 336 338 334 331 321 251 166 133 122 98 85 86 96 95 97 98 99 97 87 81 79 74 66 59 58 53 62 60 57 42 32 18 16 12 15 6 347 341 334 323 316
328 334 335 338 335 330 322 228 155 131 120 116 118 107 92 92 94 95 93 84 84 81 74 76 72 61 53 47 55 60 39 39 24 16 8 0 358 357 348 334 328 321 312
323 331 335 336 337 346 5 90 107 105 102 102 97 96 95 88 95 87 83 82 78 80 80 73 72 65 48 40 38 41 39 28 15 3 359 355 351 349 342 333 322 317 310
310 321 329 331 335 354 35 59 67 72 79 80 79 82 88 90 81 78 79 79 80 75 76 70 64 56 45 36 30 30 27 13 360 354 353 350 347 335 334 328 320 314 309
314 325 330 336 344 4 81 80 71 68 66 71 76 80 80 78 79 79 75 76 78 78 74 66 55 48 43 32 28 25 18 6 356 350 348 343 336 335 334 329 314 309 309
318 328 337 349 359 48 100 95 92 84 87 87 84 84 86 80 77 81 76 68 74 74 66 60 53 44 37 30 27 22 17 6 353 351 345 336 334 333 330 325 313 311 311
330 350 356 19 45 91 103 100 96 108 105 99 93 91 88 84 79 76 68 70 67 67 60 57 49 35 28 25 20 16 12 6 358 346 335 330 330 333 337 339 330 326 312
332 42 12 73 63 80 105 103 105 106 102 99 95 91 86 84 81 76 71 67 58 57 55 48 42 28 23 19 13 9 3 1 356 344 336 335 336 338 340 336 334 336 327
347 25 110 92 80 88 94 96 101 102 95 90 87 86 86 86 78 74 67 63 55 48 47 42 37 27 23 17 10 5 0 356 351 345 343 343 344 342 337 336 336 336 331
85 106 105 100 91 92 91 96 98 99 89 87 88 88 87 82 77 69 64 66 61 55 50 42 36 26 20 12 11 10 6 2 353 353 353 353 351 345 342 341 337 334 333
116 106 101 94 87 87 88 94 100 96 90 88 86 83 83 80 80 80 74 67 68 58 55 50 44 31 23 14 12 9 7 8 6 7 2 354 350 345 340 338 333 334 332
Height
740 739 735 732 730 726 724 722 722 718 725 727 727 730 729 731 736 737 739 746 750 757 763 767 768 773 777 780 782 783 783 782 781 786 780 777 775 772 771 772 771 771 770
740 737 735 733 729 725 720 717 713 711 711 714 713 719 720 722 724 730 730 733 740 750 755 762 764 769 773 775 775 776 775 775 776 779 777 773 769 765 764 764 764 763 763
749 740 735 731 727 721 716 710 705 703 702 702 709 714 718 720 719 718 720 725 733 741 746 751 750 752 759 766 771 769 766 767 770 772 773 773 767 763 759 759 759 758 757
749 743 736 728 724 719 714 704 698 696 695 696 699 699 700 705 703 709 715 720 726 731 738 740 741 742 749 752 760 762 760 761 764 766 764 764 764 762 754 752 755 755 753
754 747 741 733 726 718 711 703 693 691 690 690 689 692 694 694 703 707 709 715 720 721 726 729 735 733 745 749 752 753 754 754 757 758 758 759 760 760 760 757 750 748 748
756 747 742 733 725 717 708 701 693 685 683 684 685 687 689 693 699 703 707 710 712 714 718 723 728 732 739 741 742 744 746 749 751 753 754 755 755 753 755 753 749 747 744
762 753 747 739 730 721 713 704 696 687 679 679 683 687 690 693 698 702 701 704 705 707 712 717 723 726 730 732 734 738 743 745 747 750 750 750 749 751 751 750 747 745 742
766 760 753 745 737 727 717 710 700 693 686 680 686 688 691 694 697 700 701 702 705 712 719 713 716 724 726 727 730 734 740 743 746 749 747 747 748 750 751 750 748 743 740
768 763 755 748 740 732 725 715 708 700 691 688 686 689 691 692 694 697 699 702 708 713 715 734 708 726 725 735 727 731 738 741 746 748 748 748 748 749 750 750 749 748 740
768 765 759 751 743 735 728 719 713 708 702 693 692 691 695 696 699 701 704 710 714 713 710 718 736 736 728 727 735 737 738 742 745 749 752 751 752 750 749 749 748 748 746
773 768 761 756 748 740 731 724 718 713 709 705 701 695 699 702 706 710 713 718 720 713 717 726 737 736 727 731 741 741 740 745 748 751 756 757 754 753 751 749 749 747 745
774 770 764 758 750 742 734 730 724 718 717 714 709 703 713 710 708 716 724 721 725 717 725 730 735 735 737 743 746 741 745 748 751 757 761 760 756 753 752 751 751 748 744
773 770 763 757 751 743 735 731 730 724 716 722 713 709 719 716 717 720 729 726 727 736 734 737 740 745 746 749 748 748 749 752 754 760 763 760 755 754 751 751 751 750 747
774 769 762 758 752 746 738 734 731 732 729 722 716 717 715 726 716 728 733 732 738 742 739 741 746 745 748 748 751 754 754 757 760 766 761 759 755 754 752 752 752 747 747
776 771 765 758 750 744 739 734 731 733 732 728 725 722 720 723 730 730 741 743 745 743 740 748 754 750 751 754 754 754 757 762 765 766 761 758 757 752 755 752 752 748 746
774 770 765 759 750 743 735 732 732 730 730 732 732 735 733 730 740 740 745 749 747 751 747 754 757 757 754 758 754 757 761 763 764 764 759 759 754 752 754 752 750 748 745
773 770 765 759 753 742 732 730 731 731 730 732 729 734 738 737 746 749 750 754 755 750 757 760 763 765 762 763 761 754 765 763 765 763 760 759 756 753 752 750 747 743 741
771 768 765 759 753 745 738 735 735 735 735 736 738 740 741 751 751 753 754 759 762 764 764 763 767 767 767 762 760 764 764 764 764 764 761 758 754 753 752 747 744 740 737
770 768 765 760 755 750 746 743 742 744 743 744 748 750 751 755 757 759 764 768 766 766 764 771 771 767 766 768 770 768 764 764 764 762 759 757 755 753 749 745 740 736 732
768 766 763 759 756 754 749 747 749 752 753 755 757 757 760 760 764 767 770 772 774 774 771 772 771 771 772 773 770 768 767 766 763 761 758 755 755 750 746 743 737 732 727
764 765 763 761 758 757 753 752 752 756 761 761 763 765 766 769 774 775 778 780 781 777 774 774 776 779 778 774 772 771 770 768 765 761 758 755 752 748 744 739 735 729 723
762 763 763 762 760 758 758 759 757 760 762 764 767 769 771 774 777 782 785 785 785 778 777 781 781 782 782 778 773 772 772 769 767 764 761 757 751 746 738 734 731 723 718
762 763 763 764 764 763 763 762 765 766 766 766 770 774 776 781 787 788 788 787 787 786 786 785 782 786 784 780 777 775 773 770 767 765 760 753 748 742 736 731 727 722 716
763 764 765 766 767 768 769 770 772 772 773 775 778 781 786 790 791 790 791 788 788 792 791 789 788 788 785 783 781 778 774 771 767 761 755 751 746 741 737 731 725 721 714
765 767 769 770 772 773 774 777 779 779 780 782 786 789 790 792 793 794 794 793 797 798 796 794 793 791 789 788 786 782 776 771 766 759 755 749 744 740 735 728 723 721 713
768 770 774 774 777 779 780 784 784 784 784 789 792 793 794 797 800 801 798 802 803 802 800 799 797 796 793 790 785 781 775 770 763 760 757 752 747 742 737 729 724 718 713